CXBN-2

Last updated on Sat Mar 02 2019 00:02:06 GMT+0000 (Coordinated Universal Time)

1 42704U 98067LM 19059.52249959 .04259319 12249-4 63401-3 0 9998 2 42704 51.6124 101.1040 0002748 40.6309 108.8739 16.33621154102537

Satellite not in orbit